Location: Unspecified
(52.4292°N, 19.3359°E)
Time: 21:19:00
(UTC+02:00)

A-11 Canister half - Pass Details

Date: 23 May 2024
Orbit: 1524 x 1683 km, 47.3° (Epoch: 19 June)

Event Time Altitude Azimuth Distance (km) Brightness Sun altitude
Rises 00:49:54 0° 264° (W) 4,724 11.5 -16.9°
Reaches altitude 10° 00:52:57 10° 262° (W) 3,758 10.9 -16.9°
Maximum altitude 01:02:21 66° 183° (S) 1,728 9.0 -16.8°
Drops below altitude 10° 01:12:06 10° 104° (ESE) 3,882 11.0 -16.6°
Sets 01:15:18 0° 102° (ESE) 4,887 11.6 -16.5°
